Retour au catalogue

STARLINK-32484

ActifCommunicationsVLEO
NORAD 62160·PAYLOAD·🇺🇸 United States

Lancé Nov 30, 2024 depuis Cape Canaveral Space Force Station

Loading…

Prochains Passages (prochaines 24 heures)

TLE

FraisSource: CelesTrak SupGP

Époque: Sep 15, 2026, 03:05 UTC

1 62160C 24224X   26258.12895833  .00004193  00000+0  15191-3 0  2585
2 62160  43.0008 168.5336 0001386 279.6999 272.9795 15.27567214    15

Suivez STARLINK-32484 en temps réel avec AllMySat

Download on the App Store